sat.trackr.live / text

‹ back to catalog

STARLINK-11314 [DTC]

NORAD 61878 · 2024-204E

PAYLOAD ACTIVE UNKNOWN

§ Identity

Operator
Country
US
Launch date
2024-11-09
Launch site
AFWTR
Launch vehicle
Mass (kg)
RCS (m²)

Purposes: comms

External: N2YO · Heavens-Above · Gunter

§ Orbital elements

Epoch: 2026-05-24T20:19:18.895008Z

Period
91.74 min
Inclination
53.1595°
Eccentricity
0.0000990
Mean motion
15.69708080 rev/d
Perigee alt
359.1 km
Apogee alt
360.4 km
Semi-major
6,737.9 km
B*
1.5790e-5
RAAN
341.0057°
Arg perigee
75.5518°
Mean anomaly
284.5610°
Rev number
8,887

§ Raw data

STARLINK-11314 [DTC]1 61878U 24204E   26144.84674647  .00001325  00000+0  15790-4 0  99912 61878  53.1595 341.0057 0000990  75.5518 284.5610 15.69708080 88870

JSON: /api/v1/satellites/61878 · /tle

For live sub-satellite position, see the globe view (requires WebGL).

§ Visibility from observer

Set your observer location to see the next 7 days of passes ≥ 10°. The values pass through the URL so the page stays shareable.

No JS? Fill the form by hand. The geolocation button needs JavaScript.